Change the Weather History Date:

Wednesday, September 4, 2013

  Actual Average Record
Temperature  
Mean Temperature 83 °F -  
Max Temperature 89 °F 89 °F 95 °F (1998)
Min Temperature 77 °F 78 °F 73 °F (2008)
Cooling Degree Days 18    
Growing Degree Days 33 (Base 50)    
Moisture  
Dew Point 76 °F    
Average Humidity 77    
Maximum Humidity 89    
Minimum Humidity 62    
Precipitation  
Precipitation 0.31 in 0.07 in - ()
Sea Level Pressure  
Sea Level Pressure 29.84 in    
Wind  
Wind Speed 5 mph ()    
Max Wind Speed 12 mph    
Max Gust Speed -    
Visibility 6.4 miles    
Events Rain    
Averages and records for this station are not official NWS values.
T = Trace of Precipitation, MM = Missing Value Source: Averaged Metar Reports

Daily Weather History Graph

Daily Weather History Graph

Search for Another Location

Airport or City:

Trip Planner

Search our weather history database for the weather conditions in past years. The results will help you decide how hot, cold, wet, or windy it might be!

Date:

Astronomy

Sep. 04, 2013 Rise Set
Actual Time 6:25 AM AST 6:44 PM AST
Civil Twilight 6:03 AM AST 7:05 PM AST
Nautical Twilight 5:39 AM AST 7:30 PM AST
Astronomical Twilight 5:14 AM AST 7:55 PM AST
Moon 5:34 AM AST (9/4) 6:07 PM AST (9/4)
Length of Visible Light 13h 01m
Length of Day
12h 18m
Waning Crescent, 1% of the Moon is Illuminated
Sep 4
Waning Crescent
Sep 5
New
Sep 12
First Quarter
Sep 19
Full
Sep 26
Last Quarter

Hourly Weather History & Observations

Time (AST) Temp. Heat Index Dew Point Humidity Pressure Visibility Wind Dir Wind Speed Gust Speed Precip Events Conditions
12:00 AM 82.4 °F 90.9 °F 77.0 °F 84% 29.86 in 6.2 mi ENE 6.9 mph - N/A   Partly Cloudy
1:00 AM 78.8 °F - 73.4 °F 83% 29.86 in 6.2 mi Variable 1.2 mph - N/A Rain Rain Showers
2:00 AM 80 °F - 75 °F 82% 29.84 in 12 mi East 11.5 mph - - Rain Light Rain Showers
2:00 AM 80.6 °F 86.2 °F 75.2 °F 84% 29.83 in 6.2 mi Variable 1.2 mph - N/A   Scattered Clouds
3:00 AM 78.8 °F - 75.2 °F 89% 29.83 in 6.2 mi East 9.2 mph - N/A   Scattered Clouds
4:00 AM 78.8 °F - 75.2 °F 89% 29.83 in 6.2 mi Variable 1.2 mph - N/A   Scattered Clouds
5:00 AM 79 °F - 76 °F 86% 29.82 in 22 mi South 3.5 mph - -   Partly Cloudy
5:00 AM 78.8 °F - 75.2 °F 89% 29.80 in 6.2 mi SE 3.5 mph - N/A   Partly Cloudy
6:00 AM 80.6 °F 86.2 °F 75.2 °F 84% 29.83 in 6.2 mi SSE 2.3 mph - N/A   Partly Cloudy
7:00 AM 80.6 °F 86.2 °F 75.2 °F 84% 29.83 in 6.2 mi SSW 1.2 mph - N/A   Partly Cloudy
8:00 AM 82 °F - 77 °F 82% 29.87 in 22 mi Calm Calm - -   Partly Cloudy
8:00 AM 82.4 °F 90.9 °F 77.0 °F 84% 29.86 in 6.2 mi SW 1.2 mph - N/A   Partly Cloudy
9:00 AM 84.2 °F 94.1 °F 77.0 °F 79% 29.89 in 6.2 mi Variable 1.2 mph - N/A   Scattered Clouds
10:00 AM 84.2 °F 94.1 °F 77.0 °F 79% 29.92 in 6.2 mi Variable 2.3 mph - N/A   Scattered Clouds
11:00 AM 87.8 °F 102.5 °F 78.8 °F 75% 29.89 in 6.2 mi Variable 2.3 mph - N/A   Partly Cloudy
12:00 PM 89.6 °F 102.2 °F 77.0 °F 66% 29.89 in 6.2 mi SSW 5.8 mph - N/A   Scattered Clouds
1:00 PM 87.8 °F 99.7 °F 77.0 °F 70% 29.86 in 6.2 mi NE 5.8 mph - N/A   Scattered Clouds
2:00 PM 87 °F - 76 °F 62% 29.83 in 31 mi ENE 5.8 mph - -   Partly Cloudy
2:00 PM 86.0 °F 95.1 °F 75.2 °F 70% 29.83 in 6.2 mi ENE 4.6 mph - N/A   Scattered Clouds
3:00 PM 87.8 °F 99.7 °F 77.0 °F 70% 29.80 in 6.2 mi NE 5.8 mph - N/A   Scattered Clouds
4:00 PM 87.8 °F 99.7 °F 77.0 °F 70% 29.80 in 6.2 mi NE 8.1 mph - N/A   Partly Cloudy
5:00 PM 86 °F - 76 °F 65% 29.80 in 31 mi ENE 8.1 mph - -   Scattered Clouds
5:00 PM 86.0 °F 95.1 °F 75.2 °F 70% 29.80 in 6.2 mi NNE 9.2 mph - N/A   Partly Cloudy
6:00 PM 86.0 °F 95.1 °F 75.2 °F 70% 29.80 in 6.2 mi NNE 10.4 mph - N/A   Partly Cloudy
7:00 PM 84.2 °F 92.3 °F 75.2 °F 74% 29.80 in 6.2 mi NNE 8.1 mph - N/A   Partly Cloudy
8:00 PM 84 °F - 76 °F 71% 29.85 in 31 mi ENE 8.1 mph - -   Scattered Clouds
8:00 PM 84.2 °F 94.1 °F 77.0 °F 79% 29.83 in 6.2 mi NE 9.2 mph - N/A   Partly Cloudy
9:00 PM 84.2 °F 92.3 °F 75.2 °F 74% 29.86 in 6.2 mi ENE 6.9 mph - N/A   Partly Cloudy
10:00 PM 84.2 °F 92.3 °F 75.2 °F 74% 29.89 in 6.2 mi East 6.9 mph - N/A   Partly Cloudy
11:00 PM 83 °F - 76 °F 73% 29.90 in 31 mi East 4.6 mph - -   Scattered Clouds
11:00 PM 84.2 °F 92.3 °F 75.2 °F 74% 29.89 in 6.2 mi East 6.9 mph - N/A   Partly Cloudy